Location: Bear Branch Nature Center
(39.6445°N, 76.9901°W)
Time: 17:48:06
(UTC-05:00)

Daily predictions for brighter satellites

Satellite Brightness Start Highest point End
(mag) Time Altitude Azimuth Time Altitude Azimuth Time Altitude Azimuth
Meteor 1-11 Rocket 4.0 18:17:14 10° SSE 18:22:50 52° E 18:28:34 10° NNE
Cosmos 676 Rocket 4.5 18:17:47 10° SSW 18:22:56 68° WNW 18:28:10 10° NNE
NOAA 12 4.3 18:18:06 10° SSE 18:23:14 52° ENE 18:28:25 10° N
Cosmos 1140 Rocket 3.4 18:20:43 10° SSW 18:25:50 78° ESE 18:31:01 10° NNE
Cosmos 2333 Rocket 3.6 18:22:08 10° N 18:26:05 19° NE 18:30:00 10° E
Cosmos 614 Rocket 4.0 18:21:51 10° S 18:26:49 59° ESE 18:31:49 10° NNE
FENGYUN 3A 4.3 18:25:42 10° SE 18:30:28 33° ENE 18:35:14 10° N
ATLAS CENTAUR R/B 3.3 18:30:49 10° S 18:34:05 16° SE 18:36:03 10° E
GPS 2-04 Rocket1 3.6 18:31:44 10° WSW 18:35:44 42° S 18:39:42 11° E
Cosmos 2322 Rocket 4.3 18:31:10 10° NW 18:36:03 31° WSW 18:40:57 10° SSW
Meteor 1-28 Rocket 3.6 18:32:21 10° N 18:36:09 68° WNW 18:39:57 10° SSW
Cosmos 1570 Rocket 4.2 18:31:25 10° N 18:36:30 50° ENE 18:41:34 10° SE
Cosmos 2181 Rocket 4.0 18:30:31 10° N 18:36:47 71° E 18:43:08 10° SSE
Cosmos 1633 2.7 18:34:37 10° S 18:38:18 83° W 18:42:00 10° N
USA 229 DEB 4.2 18:32:51 10° NNW 18:39:39 45° NE 18:46:32 10° ESE
USA 229 4.2 18:32:57 10° NNW 18:39:45 45° NE 18:46:37 10° ESE
Genesis I 3.2 18:36:26 10° NNW 18:40:22 67° ENE 18:44:15 10° SE
Cosmos 1238 Rocket 2.0 18:37:56 10° N 18:40:53 78° E 18:43:58 10° S
Okean 1 Rocket 3.1 18:36:47 10° S 18:41:12 63° E 18:45:38 10° NNE
Cosmos 1709 Rocket 4.2 18:37:07 10° S 18:43:20 80° W 18:49:31 10° N
Cosmos 2074 Rocket 4.3 18:39:00 10° SSE 18:44:51 44° E 18:50:46 10° NNE
METEOR-M 4.1 18:39:48 10° SSE 18:45:08 82° ENE 18:50:30 10° N
Cosmos 1025 Rocket 3.5 18:44:33 10° N 18:48:40 38° ENE 18:52:45 10° SSE
OTV 4 2.1 18:47:34 10° SSW 18:49:55 21° SSE 18:51:22 15° ESE
Spot 2 Rocket 4.0 18:45:42 10° SE 18:50:16 36° ENE 18:54:54 10° N
Cosmos 2184 Rocket 4.2 18:45:13 10° SSE 18:51:13 48° E 18:57:10 10° NNE
FengYun 1-2 T 4.3 18:50:03 10° SSE 18:55:21 53° ENE 19:00:42 10° N
Cosmos 2322 4.2 18:52:14 10° NNW 18:57:54 65° WSW 19:03:32 10° S
Hubble Space Telescope 2.9 18:59:00 10° SSW 19:01:24 15° S 19:03:33 11° SE
BREEZE-M DEB (TANK) 2.2 18:59:38 10° SW 19:04:03 75° SE 19:05:20 26° ENE
Cosmos 1850 Rocket 4.3 19:00:30 10° SSW 19:05:47 74° WNW 19:11:10 10° NNE
Envisat 4.4 19:06:50 18° ENE 19:07:02 18° ENE 19:10:20 10° NNE
Cosmos 2208 Rocket 4.0 19:02:06 10° NNW 19:07:35 87° ENE 19:12:58 10° SSE
CZ-3C R/B 3.8 19:05:53 10° SW 19:08:12 11° SSW 19:09:55 10° S
SJ-6B 3.1 19:04:40 10° S 19:08:38 71° WSW 19:12:32 10° NNW
Cosmos 1544 Rocket 4.3 19:05:00 10° SSE 19:08:45 30° E 19:12:32 10° NNE
NOSS 0 Rocket 4.3 19:05:19 10° NNW 19:11:07 41° ENE 19:15:08 19° ESE
Cosmos 405 Rocket 3.4 19:07:45 10° N 19:11:29 34° ENE 19:13:12 24° ESE
ALOS 2.2 19:07:35 10° SSE 19:12:15 81° ENE 19:16:56 10° N
Cosmos 2237 Rocket 3.1 19:07:32 10° N 19:12:30 30° ENE 19:14:36 24° E
HJ-1C 3.3 19:10:08 10° SSE 19:13:30 85° ENE 19:16:53 10° N
Cosmos 2297 Rocket 3.1 19:09:26 10° SSE 19:13:50 24° ESE 19:14:23 23° E
Cosmos 2333 4.2 19:09:10 10° NNW 19:14:56 79° ENE 19:20:42 10° SSE
H-2A R/B 2.7 19:11:45 10° SSE 19:15:21 53° ENE 19:19:03 10° N
CZ-2D R/B 3.6 19:14:14 23° SE 19:16:06 40° ENE 19:19:42 10° N
COSMOS 2428 2.7 19:11:03 10° NNW 19:16:46 87° WSW 19:22:28 10° SSE
Okean 1-7 Rocket 3.9 19:14:57 10° NNW 19:19:27 71° W 19:23:53 10° S
Cosmos 2154 Rocket 4.3 19:14:47 10° SSE 19:20:42 43° E 19:26:38 10° NNE
Meteor 2-4 Rocket 3.9 19:16:42 10° NNW 19:22:10 69° W 19:27:30 10° S
Gbstr 26 Del rocket 4.4 19:19:57 10° W 19:23:14 27° NNW 19:25:40 15° NNE
Cosmos 2285 Rocket 3.9 19:17:11 10° NNW 19:23:39 75° ENE 19:30:02 10° SSE
Cosmos 2360 Rocket 4.0 19:19:52 10° NW 19:24:52 33° WSW 19:29:51 10° SSW
Cosmos 2219 Rocket 2.2 19:19:23 10° NNW 19:24:57 61° ENE 19:28:57 19° SE
Meteor 1-23 Rocket 4.4 19:22:09 10° NNW 19:27:57 78° W 19:33:39 10° S
Okean 2 3.3 19:24:54 10° N 19:29:05 75° E 19:33:15 10° SSE
Cosmos 2219 4.0 19:26:35 10° SW 19:32:12 55° WNW 19:37:51 10° NNE
OAO 3 Rocket 4.4 19:28:37 10° SW 19:32:41 26° SSE 19:33:19 25° SE
Cosmos 2227 Rocket 2.3 19:28:41 10° S 19:34:04 48° ESE 19:38:28 15° NE
Helios 1A 3.0 19:33:28 44° ESE 19:34:17 52° ENE 19:38:20 10° N
Atlas Centaur 2 4.0 19:29:21 10° SSW 19:34:18 19° SSE 19:35:47 18° SE
Cosmos 1486 Rocket 4.3 19:29:34 10° S 19:34:32 41° ESE 19:36:14 32° ENE
Helios 1B rocket 2.5 19:31:39 10° NNE 19:35:43 53° E 19:39:46 10° S
Abrixas rocket 3.5 19:33:17 10° W 19:36:24 35° NNW 19:37:11 30° N
SAR-Lupe-1 4.3 19:44:48 55° NNE 19:44:48 55° NNE 19:47:44 10° N
SAR-Lupe-4 3.4 19:44:53 84° SSE 19:45:00 88° ENE 19:48:36 10° NNW
Cosmos 1455 Rocket 2.9 19:41:49 10° S 19:46:08 65° E 19:50:28 10° NNE
Cosmos 841 Rocket 4.3 19:42:38 10° N 19:46:23 31° NE 19:46:23 31° NE
SL-16 R/B 3.4 19:43:34 10° N 19:47:22 25° NE 19:47:22 25° NE
Cosmos 962 Rocket 4.4 19:44:56 10° SSE 19:50:58 56° E 19:56:57 10° NNE
Cosmos 1763 Rocket 3.7 19:53:01 10° N 19:57:29 49° NE 19:57:29 49° NE
Resurs 01 Rocket 2.9 19:54:54 10° S 19:59:03 40° W 20:03:13 10° NNW
Cosmos 2333 Rocket 2.4 20:05:10 10° NNW 20:10:55 71° WSW 20:12:59 40° S
GEOS 3 Rocket 4.1 20:08:20 21° NNE 20:11:50 58° NW 20:17:00 10° SW
Cosmos 1980 3.6 20:06:16 10° NNW 20:11:57 86° WSW 20:12:50 65° SSE
GPS 2-04 Rocket1 4.0 20:11:12 10° W 20:14:12 37° SW 20:14:12 37° SW
Cosmos 1295 Rocket 4.4 20:33:36 85° WNW 20:33:36 85° WNW 20:39:52 10° N
Cosmos 2082 4.2 20:30:44 10° SW 20:36:22 59° WNW 20:37:59 43° N
NOSS 3-1 (A) 3.9 20:35:56 10° NNW 20:43:40 87° NE 20:44:07 81° SE
Envisat 4.1 20:47:02 41° NW 20:47:02 41° NW 20:50:35 10° NNW
ATLAS 2AS CENTAUR R/B 4.0 20:42:02 10° NNW 20:48:06 33° NNE 20:48:06 33° NNE
Cosmos 2237 Rocket 3.3 20:51:21 10° NW 20:56:29 39° WSW 20:56:29 39° WSW
Cosmos 2297 Rocket 3.3 20:52:08 10° SW 20:56:25 41° W 20:56:25 41° W
NOSS 3-1 (C) 4.3 20:53:51 10° NW 21:01:26 61° WSW 21:02:16 58° SW
H-2A R/B 4.5 21:03:58 10° SW 21:42:32 18° E 22:18:34 10° E
H-2A R/B 4.5 21:03:58 10° SW 21:42:31 18° E 22:18:34 10° E
H-2A R/B 4.5 21:03:57 10° SW 21:42:32 18° E 22:18:34 10° E
H-2A R/B 4.5 21:03:57 10° SW 21:42:30 18° E 22:18:34 10° E
H-2A R/B 4.5 21:03:57 10° SW 21:42:31 18° E 22:18:34 10° E
Cosmos 2227 Rocket 4.2 21:13:46 10° WSW 21:18:22 25° NW 21:20:36 20° NNW
SL-16 R/B 4.3 21:27:09 10° NW 21:29:17 23° NW 21:29:17 23° NW
